sat.trackr.live / text

‹ back to catalog

UNKNOWN

NORAD 89003

UNKNOWN UNKNOWN UNKNOWN

§ Identity

Operator
Country
Launch date
Launch site
Launch vehicle
Mass (kg)
RCS (m²)

External: N2YO · Heavens-Above

§ Orbital elements

Epoch: 2026-05-23T02:34:11.821728Z

Period
100.26 min
Inclination
74.0467°
Eccentricity
0.0015012
Mean motion
14.36309053 rev/d
Perigee alt
760.0 km
Apogee alt
781.5 km
Semi-major
7,148.9 km
B*
7.4172e-5
RAAN
78.4219°
Arg perigee
98.6845°
Mean anomaly
261.6009°
Rev number
65,471

§ Raw data

UNKNOWN1 89003U          26143.10708127  .00000191  00000+0  74172-4 0  99972 89003  74.0467  78.4219 0015012  98.6845 261.6009 14.36309053654711

JSON: /api/v1/satellites/89003 · /tle

For live sub-satellite position, see the globe view (requires WebGL).

§ Visibility from observer

Set your observer location to see the next 7 days of passes ≥ 10°. The values pass through the URL so the page stays shareable.

No JS? Fill the form by hand. The geolocation button needs JavaScript.